TUI243 EDDG-LOWI

Flight info

Callsign TUI243
Flight time N/A
Altitude 31000
Route DOMEG1W/25 DOMEG Z841 GMH Q603 TESGA L603 BOMBI T104 WLD M867 BAVAX Z106 MANAL M736 TULSI TULSI3A
Aircraft B738/M-SDE2E3FGHIRWXY/LB1

Departure

Time 2026-04-30 19:38
Airport Münster Osnabrück Airport (EDDG)

Arrival

Time N/A
Airport Innsbruck Airport (LOWI)
Time Latitude Longitude Altitude Speed Heading
2026-04-30 19:00 52.13191 7.69471 167 ft 0 kts 197°
2026-04-30 19:31 52.13189 7.69470 140 ft 1 kts 197°
2026-04-30 19:31 52.13188 7.69458 172 ft 1 kts 265°
2026-04-30 19:31 52.13235 7.69353 166 ft 10 kts 312°
2026-04-30 19:32 52.13309 7.69291 165 ft 14 kts 340°
2026-04-30 19:32 52.13405 7.69321 164 ft 15 kts 24°
2026-04-30 19:32 52.13487 7.69423 166 ft 15 kts 64°
2026-04-30 19:32 52.13527 7.69602 166 ft 18 kts 71°
2026-04-30 19:33 52.13563 7.69771 165 ft 10 kts 71°
2026-04-30 19:33 52.13587 7.69886 164 ft 11 kts 71°
2026-04-30 19:33 52.13620 7.69991 165 ft 10 kts 46°
2026-04-30 19:33 52.13634 7.70009 165 ft 0 kts 34°
2026-04-30 19:34 52.13647 7.70022 164 ft 4 kts 25°
2026-04-30 19:35 52.13686 7.70033 163 ft 0 kts 358°
2026-04-30 19:36 52.13707 7.70026 163 ft 5 kts 342°
2026-04-30 19:37 52.13754 7.69988 163 ft 9 kts 317°
2026-04-30 19:37 52.13762 7.69886 166 ft 10 kts 253°
2026-04-30 19:37 52.13711 7.69640 168 ft 59 kts 251°
2026-04-30 19:37 52.13479 7.68538 165 ft 145 kts 251°
2026-04-30 19:38 52.13122 7.66692 570 ft 187 kts 253°
2026-04-30 19:38 52.12718 7.64554 1444 ft 207 kts 245°
2026-04-30 19:38 52.12211 7.62284 2449 ft 217 kts 244°
2026-04-30 19:38 52.11695 7.59999 3324 ft 209 kts 244°
2026-04-30 19:39 52.11216 7.57859 3946 ft 197 kts 243°
2026-04-30 19:39 52.10755 7.55804 4393 ft 190 kts 243°
2026-04-30 19:39 52.10294 7.53761 4968 ft 197 kts 244°
2026-04-30 19:39 52.09610 7.51783 5409 ft 205 kts 214°
2026-04-30 19:40 52.08331 7.50982 5876 ft 198 kts 173°
2026-04-30 19:40 52.06911 7.51228 6184 ft 214 kts 168°
2026-04-30 19:40 52.05408 7.51555 6647 ft 224 kts 168°
2026-04-30 19:40 52.03823 7.51905 7072 ft 235 kts 168°
2026-04-30 19:41 52.02164 7.52266 7458 ft 245 kts 168°
2026-04-30 19:41 52.00441 7.52636 7862 ft 255 kts 168°
2026-04-30 19:41 51.98659 7.53014 8260 ft 262 kts 169°
2026-04-30 19:41 51.96848 7.53392 8659 ft 262 kts 168°
2026-04-30 19:42 51.95036 7.53767 9063 ft 263 kts 168°
2026-04-30 19:42 51.93221 7.54142 9469 ft 264 kts 168°
2026-04-30 19:42 51.91388 7.54520 9925 ft 263 kts 168°
2026-04-30 19:42 51.89609 7.54884 10666 ft 255 kts 168°
2026-04-30 19:43 51.87869 7.55239 11364 ft 249 kts 168°
2026-04-30 19:43 51.86147 7.55595 11829 ft 256 kts 168°
2026-04-30 19:43 51.84320 7.55978 11979 ft 273 kts 168°
2026-04-30 19:44 51.80463 7.56770 12884 ft 282 kts 168°
2026-04-30 19:44 51.78503 7.57170 13372 ft 285 kts 168°
2026-04-30 19:44 51.76529 7.57573 13873 ft 288 kts 168°
2026-04-30 19:44 51.74534 7.57980 14356 ft 290 kts 168°
2026-04-30 19:45 51.72526 7.58390 14785 ft 292 kts 168°
2026-04-30 19:45 51.70513 7.58875 15204 ft 292 kts 162°
2026-04-30 19:45 51.68565 7.59832 15623 ft 294 kts 156°
2026-04-30 19:45 51.66632 7.60976 16150 ft 298 kts 155°
2026-04-30 19:46 51.64691 7.62150 16904 ft 298 kts 155°
2026-04-30 19:46 51.62740 7.63315 17599 ft 300 kts 155°
2026-04-30 19:46 51.60755 7.64484 18043 ft 312 kts 155°
2026-04-30 19:46 51.58657 7.65708 18196 ft 332 kts 156°
2026-04-30 19:47 51.56404 7.67006 18350 ft 352 kts 156°
2026-04-30 19:47 51.54821 7.67911 18458 ft 364 kts 156°
2026-04-30 19:47 51.51560 7.69762 18715 ft 384 kts 157°
2026-04-30 19:47 51.49015 7.71196 19127 ft 391 kts 157°
2026-04-30 19:48 51.46441 7.72644 19613 ft 396 kts 157°
2026-04-30 19:48 51.43843 7.74105 20213 ft 397 kts 157°
2026-04-30 19:48 51.41224 7.75579 20782 ft 399 kts 157°
2026-04-30 19:48 51.38588 7.77062 21305 ft 403 kts 157°
2026-04-30 19:49 51.35935 7.78562 21805 ft 406 kts 157°
2026-04-30 19:49 51.30564 7.81606 22849 ft 413 kts 157°
2026-04-30 19:49 51.27850 7.83141 23412 ft 414 kts 157°
2026-04-30 19:50 51.25126 7.84680 23918 ft 417 kts 158°
2026-04-30 19:50 51.22382 7.86228 24304 ft 420 kts 158°
2026-04-30 19:50 51.19618 7.87784 24685 ft 424 kts 158°
2026-04-30 19:50 51.16828 7.89512 25076 ft 424 kts 152°
2026-04-30 19:51 51.14306 7.91832 25451 ft 424 kts 144°
2026-04-30 19:51 51.11802 7.94449 25839 ft 427 kts 144°
2026-04-30 19:51 51.09308 7.97058 26204 ft 430 kts 144°
2026-04-30 19:51 51.06824 7.99618 26607 ft 432 kts 144°
2026-04-30 19:52 51.04299 8.02181 27123 ft 430 kts 145°
2026-04-30 19:52 51.01777 8.04725 27709 ft 427 kts 145°
2026-04-30 19:52 50.99231 8.07289 28170 ft 428 kts 144°
2026-04-30 19:52 50.96711 8.09833 28553 ft 430 kts 144°
2026-04-30 19:53 50.94185 8.12384 29054 ft 429 kts 144°
2026-04-30 19:53 50.91673 8.14917 29471 ft 431 kts 144°
2026-04-30 19:53 50.86515 8.20115 29702 ft 445 kts 144°
2026-04-30 19:54 50.83885 8.22758 29942 ft 449 kts 144°
2026-04-30 19:54 50.81249 8.25403 30169 ft 452 kts 144°
2026-04-30 19:54 50.79486 8.27169 30344 ft 455 kts 145°
2026-04-30 19:54 50.78654 8.28002 30397 ft 456 kts 145°
2026-04-30 19:55 50.76000 8.30657 30481 ft 462 kts 145°
2026-04-30 19:55 50.70523 8.36126 30610 ft 473 kts 145°
2026-04-30 19:56 50.67695 8.38943 30796 ft 475 kts 145°
2026-04-30 19:56 50.64898 8.41724 31020 ft 475 kts 144°
2026-04-30 19:56 50.62090 8.44513 31125 ft 479 kts 145°
2026-04-30 19:56 50.60227 8.46361 31195 ft 480 kts 145°
2026-04-30 19:57 50.57398 8.49164 31326 ft 479 kts 145°
2026-04-30 19:57 50.54579 8.51953 31374 ft 479 kts 144°
2026-04-30 19:57 50.48948 8.57515 31370 ft 475 kts 144°
2026-04-30 19:58 50.43231 8.62584 31368 ft 475 kts 155°
2026-04-30 19:58 50.36899 8.65625 31369 ft 477 kts 161°
2026-04-30 19:59 50.30570 8.68453 31378 ft 477 kts 160°
2026-04-30 20:00 50.21017 8.72879 31354 ft 477 kts 160°
2026-04-30 20:00 50.14663 8.75845 31353 ft 476 kts 160°
2026-04-30 20:01 50.05403 8.81137 31359 ft 470 kts 146°
2026-04-30 20:01 50.00317 8.87370 31365 ft 463 kts 134°
2026-04-30 20:02 49.93184 8.97625 31354 ft 464 kts 134°
2026-04-30 20:03 49.92155 8.99086 31356 ft 464 kts 134°
2026-04-30 20:04 49.89360 9.03028 31360 ft 465 kts 134°
2026-04-30 20:05 49.84896 9.09287 31374 ft 465 kts 134°
2026-04-30 20:05 49.79744 9.16480 31358 ft 465 kts 134°
2026-04-30 20:06 49.75617 9.22232 31356 ft 465 kts 134°
2026-04-30 20:06 49.70809 9.28918 31356 ft 465 kts 134°
2026-04-30 20:07 49.65998 9.35592 31351 ft 465 kts 134°
2026-04-30 20:08 49.60367 9.43656 31356 ft 462 kts 128°
2026-04-30 20:08 49.56425 9.50638 31355 ft 461 kts 126°